Time,TemperatureF,DewpointF,PressureIn,WindDirection,WindDirectionDegrees,WindSpeedMPH,WindSpeedGustMPH,Humidity,HourlyPrecipIn,Conditions,Clouds,dailyrainin,SolarRadiationWatts/m^2,SoftwareType,DateUTC
2013-04-09 00:00:00,40.1,37.7,29.97,SE,145,5.0,5.0,91,0.00,,---,0.00,0.00,VWS V14.01,2013-04-09 05:00:00,
2013-04-09 00:05:00,40.0,37.6,29.97,NE,50,7.0,7.0,91,0.00,,---,0.00,0.00,VWS V14.01,2013-04-09 05:05:00,
2013-04-09 00:10:00,39.8,37.7,29.98,ENE,68,8.0,9.0,92,0.00,,---,0.00,0.00,VWS V14.01,2013-04-09 05:10:00,
2013-04-09 00:15:00,39.7,37.6,29.98,NE,46,4.0,9.0,92,0.00,,---,0.00,0.00,VWS V14.01,2013-04-09 05:15:00,
2013-04-09 00:20:00,39.6,37.5,29.98,NNE,29,3.0,9.0,92,0.00,,---,0.00,0.00,VWS V14.01,2013-04-09 05:20:00,
2013-04-09 00:25:00,39.7,37.6,29.98,NE,49,3.0,9.0,92,0.00,,---,0.00,0.00,VWS V14.01,2013-04-09 05:25:00,
2013-04-09 00:30:00,39.7,37.6,29.99,NE,49,2.0,9.0,92,0.00,,---,0.00,0.00,VWS V14.01,2013-04-09 05:30:00,
2013-04-09 00:35:00,39.7,37.8,30.00,NE,54,3.0,9.0,93,0.00,,---,0.00,0.00,VWS V14.01,2013-04-09 05:35:00,
2013-04-09 00:40:00,39.6,37.5,29.99,NE,43,4.0,9.0,92,0.00,,---,0.00,0.00,VWS V14.01,2013-04-09 05:40:00,
2013-04-09 00:45:00,39.5,37.4,29.99,ENE,64,2.0,9.0,92,0.00,,---,0.00,0.00,VWS V14.01,2013-04-09 05:45:00,
2013-04-09 00:50:00,39.5,37.7,29.99,NNE,25,2.0,9.0,93,0.00,,---,0.00,0.00,VWS V14.01,2013-04-09 05:50:00,
2013-04-09 00:55:00,39.5,37.7,29.99,NE,52,3.0,9.0,93,0.00,,---,0.00,0.00,VWS V14.01,2013-04-09 05:55:00,
2013-04-09 01:00:00,39.5,37.7,29.99,NNE,26,1.0,4.0,93,0.00,,---,0.00,0.00,VWS V14.01,2013-04-09 06:00:00,
2013-04-09 01:05:00,39.5,37.7,29.99,NNE,26,2.0,4.0,93,0.00,,---,0.00,0.00,VWS V14.01,2013-04-09 06:05:00,
2013-04-09 01:10:00,39.5,37.7,29.99,NNE,26,2.0,4.0,93,0.00,,---,0.00,0.00,VWS V14.01,2013-04-09 06:10:00,
2013-04-09 01:15:00,39.5,37.7,29.99,ENE,58,2.0,4.0,93,0.00,,---,0.00,0.00,VWS V14.01,2013-04-09 06:15:00,
2013-04-09 01:20:00,39.4,37.5,29.99,NE,34,4.0,5.0,93,0.00,,---,0.00,0.00,VWS V14.01,2013-04-09 06:20:00,
2013-04-09 01:25:00,39.3,37.5,29.99,NE,45,2.0,5.0,93,0.00,,---,0.00,0.00,VWS V14.01,2013-04-09 06:25:00,
2013-04-09 01:30:00,39.3,37.5,29.99,NE,45,2.0,5.0,93,0.00,,---,0.00,0.00,VWS V14.01,2013-04-09 06:30:00,
2013-04-09 01:35:00,39.3,37.5,29.98,ENE,59,2.0,5.0,93,0.00,,---,0.00,0.00,VWS V14.01,2013-04-09 06:35:00,
2013-04-09 01:40:00,39.3,37.5,29.98,ENE,59,2.0,5.0,93,0.00,,---,0.00,0.00,VWS V14.01,2013-04-09 06:40:00,
2013-04-09 01:45:00,39.3,37.5,29.98,ENE,74,4.0,5.0,93,0.00,,---,0.00,0.00,VWS V14.01,2013-04-09 06:45:00,
2013-04-09 01:50:00,39.2,37.3,29.97,NE,40,3.0,5.0,93,0.00,,---,0.00,0.00,VWS V14.01,2013-04-09 06:50:00,
2013-04-09 01:55:00,39.1,37.2,29.97,NNE,31,1.0,5.0,93,0.00,,---,0.00,0.00,VWS V14.01,2013-04-09 06:55:00,
2013-04-09 02:00:00,39.0,37.2,29.96,NE,46,6.0,8.0,93,0.00,,---,0.00,0.00,VWS V14.01,2013-04-09 07:00:00,
2013-04-09 02:05:00,38.8,37.0,29.97,NE,55,6.0,9.0,93,0.00,,---,0.00,0.00,VWS V14.01,2013-04-09 07:05:00,
2013-04-09 02:11:00,38.7,36.8,29.96,NE,50,3.0,9.0,93,0.00,,---,0.00,0.00,VWS V14.01,2013-04-09 07:11:00,
2013-04-09 02:16:00,38.6,36.8,29.96,NE,42,5.0,10.0,93,0.00,,---,0.00,0.00,VWS V14.01,2013-04-09 07:16:00,
2013-04-09 02:21:00,38.6,36.8,29.96,ENE,59,4.0,10.0,93,0.00,,---,0.00,0.00,VWS V14.01,2013-04-09 07:21:00,
2013-04-09 02:26:00,38.6,36.8,29.97,NE,53,6.0,10.0,93,0.00,,---,0.00,0.00,VWS V14.01,2013-04-09 07:26:00,
2013-04-09 02:30:00,38.5,36.9,29.97,NE,56,2.0,10.0,94,0.00,,---,0.00,0.00,VWS V14.01,2013-04-09 07:30:00,
2013-04-09 02:35:00,38.5,36.9,29.97,ENE,58,2.0,10.0,94,0.00,,---,0.00,0.00,VWS V14.01,2013-04-09 07:35:00,
2013-04-09 02:40:00,38.6,37.0,29.98,ENE,58,2.0,10.0,94,0.00,,---,0.00,0.00,VWS V14.01,2013-04-09 07:40:00,
2013-04-09 02:45:00,38.6,37.0,29.98,NE,54,8.0,10.0,94,0.00,,---,0.00,0.00,VWS V14.01,2013-04-09 07:45:00,
2013-04-09 02:50:00,38.5,36.9,29.98,ENE,59,4.0,10.0,94,0.00,,---,0.00,0.00,VWS V14.01,2013-04-09 07:50:00,
2013-04-09 02:55:00,38.5,36.9,29.98,ENE,72,3.0,10.0,94,0.00,,---,0.00,0.00,VWS V14.01,2013-04-09 07:55:00,
2013-04-09 03:00:00,38.5,36.9,29.98,ENE,58,3.0,10.0,94,0.00,,---,0.00,0.00,VWS V14.01,2013-04-09 08:00:00,
2013-04-09 03:01:00,38.5,36.9,29.97,ENE,73,4.0,4.0,94,0.00,,---,0.00,0.00,VWS V14.01,2013-04-09 08:01:00,
2013-04-09 03:06:00,38.5,36.9,29.97,ENE,69,3.0,4.0,94,0.00,,---,0.00,0.00,VWS V14.01,2013-04-09 08:06:00,
2013-04-09 03:11:00,38.5,36.9,29.97,NE,35,4.0,5.0,94,0.00,,---,0.00,0.00,VWS V14.01,2013-04-09 08:11:00,
2013-04-09 03:16:00,38.5,36.9,29.98,East,82,1.0,6.0,94,0.00,,---,0.00,0.00,VWS V14.01,2013-04-09 08:16:00,
2013-04-09 03:21:00,38.5,36.9,29.98,ENE,62,3.0,7.0,94,0.00,,---,0.00,0.00,VWS V14.01,2013-04-09 08:21:00,
2013-04-09 03:26:00,38.6,37.0,29.97,East,89,3.0,7.0,94,0.00,,---,0.00,0.00,VWS V14.01,2013-04-09 08:26:00,
2013-04-09 03:31:00,38.5,36.9,29.97,NE,45,3.0,7.0,94,0.00,,---,0.00,0.00,VWS V14.01,2013-04-09 08:31:00,
2013-04-09 03:36:00,38.5,36.9,29.96,NE,55,5.0,11.0,94,0.00,,---,0.00,0.00,VWS V14.01,2013-04-09 08:36:00,
2013-04-09 03:41:00,38.5,36.9,29.97,NNE,21,4.0,11.0,94,0.00,,---,0.00,0.00,VWS V14.01,2013-04-09 08:41:00,
2013-04-09 03:46:00,38.5,36.9,29.96,ENE,70,3.0,11.0,94,0.00,,---,0.00,0.00,VWS V14.01,2013-04-09 08:46:00,
2013-04-09 03:51:00,38.5,37.2,29.97,ENE,69,2.0,11.0,95,0.00,,---,0.00,0.00,VWS V14.01,2013-04-09 08:51:00,
2013-04-09 03:56:00,38.6,37.3,29.97,ENE,70,2.0,11.0,95,0.00,,---,0.00,0.00,VWS V14.01,2013-04-09 08:56:00,
2013-04-09 04:00:00,38.5,37.2,29.97,NE,48,4.0,11.0,95,0.00,,---,0.00,0.00,VWS V14.01,2013-04-09 09:00:00,
2013-04-09 04:01:00,38.5,37.2,29.97,ENE,57,5.0,8.0,95,0.00,,---,0.00,0.00,VWS V14.01,2013-04-09 09:01:00,
2013-04-09 04:06:00,38.5,37.2,29.96,NE,44,2.0,8.0,95,0.00,,---,0.00,0.00,VWS V14.01,2013-04-09 09:06:00,
2013-04-09 04:11:00,38.5,37.2,29.97,ENE,73,4.0,9.0,95,0.00,,---,0.00,0.00,VWS V14.01,2013-04-09 09:11:00,
2013-04-09 04:16:00,38.5,37.2,29.97,NE,44,1.0,9.0,95,0.00,,---,0.00,0.00,VWS V14.01,2013-04-09 09:16:00,
2013-04-09 04:21:00,38.6,37.3,29.97,ENE,67,1.0,9.0,95,0.00,,---,0.00,0.00,VWS V14.01,2013-04-09 09:21:00,
2013-04-09 04:26:00,38.6,37.3,29.96,NE,52,3.0,9.0,95,0.00,,---,0.00,0.00,VWS V14.01,2013-04-09 09:26:00,
2013-04-09 04:31:00,38.5,37.2,29.97,NE,53,1.0,9.0,95,0.00,,---,0.00,0.00,VWS V14.01,2013-04-09 09:31:00,
2013-04-09 04:36:00,38.5,37.2,29.96,NE,48,3.0,9.0,95,0.00,,---,0.00,0.00,VWS V14.01,2013-04-09 09:36:00,
2013-04-09 04:42:00,38.5,37.2,29.96,NE,45,4.0,9.0,95,0.00,,---,0.00,0.00,VWS V14.01,2013-04-09 09:42:00,
2013-04-09 04:47:00,38.4,37.1,29.95,NE,34,5.0,9.0,95,0.00,,---,0.00,0.00,VWS V14.01,2013-04-09 09:47:00,
2013-04-09 04:52:00,38.4,37.1,29.95,NE,51,3.0,9.0,95,0.00,,---,0.00,0.00,VWS V14.01,2013-04-09 09:52:00,
2013-04-09 04:57:00,38.4,37.1,29.95,NE,53,3.0,9.0,95,0.00,,---,0.00,0.00,VWS V14.01,2013-04-09 09:57:00,
2013-04-09 05:00:00,38.4,37.1,29.96,NNE,31,3.0,9.0,95,0.00,,---,0.00,0.00,VWS V14.01,2013-04-09 10:00:00,
2013-04-09 05:02:00,38.4,37.1,29.96,ENE,57,2.0,8.0,95,0.00,,---,0.00,0.00,VWS V14.01,2013-04-09 10:02:00,
2013-04-09 05:07:00,38.3,37.0,29.97,NE,51,1.0,8.0,95,0.00,,---,0.00,0.00,VWS V14.01,2013-04-09 10:07:00,
2013-04-09 05:12:00,38.3,37.0,29.97,NE,37,7.0,9.0,95,0.00,,---,0.00,0.00,VWS V14.01,2013-04-09 10:12:00,
2013-04-09 05:17:00,38.3,37.0,29.98,ENE,70,1.0,9.0,95,0.00,,---,0.00,0.00,VWS V14.01,2013-04-09 10:17:00,
2013-04-09 05:22:00,38.4,37.1,29.98,East,84,2.0,9.0,95,0.00,,---,0.00,0.00,VWS V14.01,2013-04-09 10:22:00,
2013-04-09 05:27:00,38.4,37.1,29.98,ENE,63,3.0,10.0,95,0.00,,---,0.00,0.00,VWS V14.01,2013-04-09 10:27:00,
2013-04-09 05:32:00,38.4,37.1,29.97,NE,39,4.0,10.0,95,0.00,,---,0.00,0.00,VWS V14.01,2013-04-09 10:32:00,
2013-04-09 05:37:00,38.4,37.1,29.97,ENE,71,4.0,10.0,95,0.00,,---,0.00,0.00,VWS V14.01,2013-04-09 10:37:00,
2013-04-09 05:42:00,38.3,37.0,29.97,East,79,6.0,10.0,95,0.00,,---,0.00,0.00,VWS V14.01,2013-04-09 10:42:00,
2013-04-09 05:47:00,38.3,37.0,29.97,ENE,72,2.0,10.0,95,0.00,,---,0.00,0.00,VWS V14.01,2013-04-09 10:47:00,
2013-04-09 05:52:00,38.3,37.0,29.98,ENE,69,2.0,10.0,95,0.00,,---,0.00,0.00,VWS V14.01,2013-04-09 10:52:00,
2013-04-09 05:57:00,38.4,37.1,29.98,ENE,69,3.0,10.0,95,0.00,,---,0.00,0.00,VWS V14.01,2013-04-09 10:57:00,
2013-04-09 06:00:00,38.4,37.1,29.98,ENE,68,4.0,10.0,95,0.00,,---,0.00,0.00,VWS V14.01,2013-04-09 11:00:00,
2013-04-09 06:02:00,38.4,37.1,29.98,ENE,59,4.0,7.0,95,0.00,,---,0.00,0.00,VWS V14.01,2013-04-09 11:02:00,
2013-04-09 06:07:00,38.4,37.1,29.97,NE,49,3.0,7.0,95,0.00,,---,0.00,0.00,VWS V14.01,2013-04-09 11:07:00,
2013-04-09 06:12:00,38.3,36.7,29.96,ENE,62,2.0,8.0,94,0.00,,---,0.00,0.00,VWS V14.01,2013-04-09 11:12:00,
2013-04-09 06:17:00,38.3,36.7,29.96,NE,44,5.0,8.0,94,0.00,,---,0.00,0.00,VWS V14.01,2013-04-09 11:17:00,
2013-04-09 06:22:00,38.3,36.7,29.95,NE,55,0.0,8.0,94,0.00,,---,0.00,0.00,VWS V14.01,2013-04-09 11:22:00,
2013-04-09 06:27:00,38.3,36.7,29.95,NE,45,2.0,8.0,94,0.00,,---,0.00,0.00,VWS V14.01,2013-04-09 11:27:00,
2013-04-09 06:32:00,38.3,36.7,29.95,NE,49,5.0,8.0,94,0.01,,---,0.01,0.00,VWS V14.01,2013-04-09 11:32:00,
2013-04-09 06:37:00,38.3,36.7,29.95,NE,45,4.0,10.0,94,0.02,,---,0.02,0.00,VWS V14.01,2013-04-09 11:37:00,
2013-04-09 06:42:00,38.3,37.0,29.95,NNE,31,1.0,10.0,95,0.03,,---,0.03,0.00,VWS V14.01,2013-04-09 11:42:00,
2013-04-09 06:47:00,38.2,36.6,29.94,NE,40,7.0,10.0,94,0.04,,---,0.04,0.00,VWS V14.01,2013-04-09 11:47:00,
2013-04-09 06:52:00,38.2,36.6,29.94,ENE,63,4.0,10.0,94,0.06,,---,0.06,0.00,VWS V14.01,2013-04-09 11:52:00,
2013-04-09 06:57:00,38.2,36.9,29.95,East,79,0.0,10.0,95,0.07,,---,0.07,0.00,VWS V14.01,2013-04-09 11:57:00,
2013-04-09 07:00:00,38.2,36.9,29.95,ENE,62,3.0,10.0,95,0.07,,---,0.07,0.00,VWS V14.01,2013-04-09 12:00:00,
2013-04-09 07:02:00,38.2,36.9,29.96,ESE,113,2.0,5.0,95,0.07,,---,0.07,0.00,VWS V14.01,2013-04-09 12:02:00,
2013-04-09 07:07:00,38.2,36.9,29.96,East,81,2.0,10.0,95,0.08,,---,0.08,0.00,VWS V14.01,2013-04-09 12:07:00,
2013-04-09 07:12:00,38.1,36.8,29.95,ENE,69,5.0,10.0,95,0.09,,---,0.09,0.00,VWS V14.01,2013-04-09 12:12:00,
2013-04-09 07:17:00,37.9,36.6,29.95,ENE,64,4.0,10.0,95,0.10,,---,0.10,0.00,VWS V14.01,2013-04-09 12:17:00,
2013-04-09 07:22:00,37.7,36.4,29.95,NE,55,6.0,11.0,95,0.11,,---,0.11,0.00,VWS V14.01,2013-04-09 12:22:00,
2013-04-09 07:27:00,37.7,36.4,29.97,NNE,13,1.0,11.0,95,0.13,,---,0.13,0.00,VWS V14.01,2013-04-09 12:27:00,
2013-04-09 07:32:00,37.7,36.4,29.99,NNE,13,0.0,11.0,95,0.15,,---,0.15,0.00,VWS V14.01,2013-04-09 12:32:00,
2013-04-09 07:37:00,37.8,36.5,30.00,NNE,13,0.0,11.0,95,0.16,,---,0.16,0.00,VWS V14.01,2013-04-09 12:37:00,
2013-04-09 07:42:00,37.8,36.5,30.00,NNE,13,1.0,11.0,95,0.18,,---,0.18,0.00,VWS V14.01,2013-04-09 12:42:00,
2013-04-09 07:47:00,37.8,36.5,30.00,NNE,13,1.0,11.0,95,0.20,,---,0.20,0.00,VWS V14.01,2013-04-09 12:47:00,
2013-04-09 07:52:00,37.8,36.5,29.99,NE,53,4.0,11.0,95,0.24,,---,0.24,0.00,VWS V14.01,2013-04-09 12:52:00,
2013-04-09 07:57:00,37.7,36.4,29.93,ENE,58,8.0,11.0,95,0.27,,---,0.27,0.00,VWS V14.01,2013-04-09 12:57:00,
2013-04-09 08:00:00,37.5,36.2,29.93,ENE,57,8.0,15.0,95,0.28,,---,0.28,5.00,VWS V14.01,2013-04-09 13:00:00,
2013-04-09 08:02:00,37.4,36.1,29.94,ENE,61,3.0,15.0,95,0.23,,---,0.30,11.00,VWS V14.01,2013-04-09 13:02:00,
2013-04-09 08:07:00,37.3,36.0,29.94,NNE,26,5.0,15.0,95,0.25,,---,0.32,14.00,VWS V14.01,2013-04-09 13:07:00,
2013-04-09 08:12:00,37.2,35.9,29.96,East,84,2.0,15.0,95,0.26,,---,0.33,14.00,VWS V14.01,2013-04-09 13:12:00,
2013-04-09 08:17:00,37.2,35.9,29.95,East,96,1.0,15.0,95,0.26,,---,0.33,37.00,VWS V14.01,2013-04-09 13:17:00,
2013-04-09 08:22:00,37.2,35.9,29.95,East,84,7.0,15.0,95,0.27,,---,0.34,46.00,VWS V14.01,2013-04-09 13:22:00,
2013-04-09 08:27:00,37.1,35.8,29.95,ENE,62,8.0,15.0,95,0.27,,---,0.34,44.00,VWS V14.01,2013-04-09 13:27:00,
2013-04-09 08:32:00,37.0,35.7,29.93,NE,46,5.0,15.0,95,0.27,,---,0.34,62.00,VWS V14.01,2013-04-09 13:32:00,
2013-04-09 08:37:00,37.0,35.7,29.93,East,100,5.0,15.0,95,0.27,,---,0.34,69.00,VWS V14.01,2013-04-09 13:37:00,
2013-04-09 08:42:00,37.1,36.1,29.93,NNE,19,7.0,15.0,96,0.27,,---,0.34,51.00,VWS V14.01,2013-04-09 13:42:00,
2013-04-09 08:47:00,37.0,36.0,29.92,ENE,73,0.0,15.0,96,0.27,,---,0.34,58.00,VWS V14.01,2013-04-09 13:47:00,
2013-04-09 08:52:00,37.1,36.1,29.92,East,94,7.0,15.0,96,0.27,,---,0.34,37.00,VWS V14.01,2013-04-09 13:52:00,
2013-04-09 08:57:00,37.0,35.7,29.93,NE,48,3.0,15.0,95,0.27,,---,0.34,35.00,VWS V14.01,2013-04-09 13:57:00,
2013-04-09 09:00:00,37.0,36.0,29.93,ENE,67,8.0,15.0,96,0.27,,---,0.34,28.00,VWS V14.01,2013-04-09 14:00:00,
2013-04-09 09:03:00,37.1,36.1,29.93,NE,36,5.0,8.0,96,0.06,,---,0.34,26.00,VWS V14.01,2013-04-09 14:03:00,
2013-04-09 09:08:00,37.1,36.1,29.93,ENE,61,2.0,8.0,96,0.06,,---,0.34,28.00,VWS V14.01,2013-04-09 14:08:00,
2013-04-09 09:13:00,37.2,36.2,29.93,ENE,61,7.0,10.0,96,0.06,,---,0.34,26.00,VWS V14.01,2013-04-09 14:13:00,
2013-04-09 09:18:00,37.2,36.2,29.93,ENE,68,2.0,10.0,96,0.06,,---,0.34,26.00,VWS V14.01,2013-04-09 14:18:00,
2013-04-09 09:23:00,37.2,36.2,29.92,NE,51,3.0,10.0,96,0.06,,---,0.34,25.00,VWS V14.01,2013-04-09 14:23:00,
2013-04-09 09:28:00,37.1,36.1,29.92,ENE,73,7.0,10.0,96,0.06,,---,0.34,42.00,VWS V14.01,2013-04-09 14:28:00,
2013-04-09 09:33:00,37.1,36.1,29.91,East,84,3.0,11.0,96,0.07,,---,0.35,53.00,VWS V14.01,2013-04-09 14:33:00,
2013-04-09 09:38:00,37.1,36.1,29.92,East,96,2.0,11.0,96,0.07,,---,0.35,40.00,VWS V14.01,2013-04-09 14:38:00,
2013-04-09 09:42:00,37.1,36.1,29.91,ENE,59,5.0,11.0,96,0.07,,---,0.35,47.00,VWS V14.01,2013-04-09 14:42:00,
2013-04-09 09:48:00,37.0,35.7,29.91,ENE,77,3.0,11.0,95,0.07,,---,0.35,42.00,VWS V14.01,2013-04-09 14:48:00,
2013-04-09 09:53:00,37.0,35.7,29.91,NE,47,6.0,11.0,95,0.07,,---,0.35,62.00,VWS V14.01,2013-04-09 14:53:00,
2013-04-09 09:58:00,37.0,35.7,29.92,ENE,59,5.0,11.0,95,0.07,,---,0.35,62.00,VWS V14.01,2013-04-09 14:58:00,
2013-04-09 10:00:00,36.9,35.6,29.92,NE,38,6.0,13.0,95,0.07,,---,0.35,74.00,VWS V14.01,2013-04-09 15:00:00,
2013-04-09 10:03:00,37.0,35.7,29.91,ENE,62,5.0,12.0,95,0.01,,---,0.35,76.00,VWS V14.01,2013-04-09 15:03:00,
2013-04-09 10:08:00,37.0,35.7,29.91,ENE,66,7.0,12.0,95,0.01,,---,0.35,79.00,VWS V14.01,2013-04-09 15:08:00,
2013-04-09 10:13:00,37.1,36.1,29.90,NE,53,4.0,12.0,96,0.01,,---,0.35,76.00,VWS V14.01,2013-04-09 15:13:00,
2013-04-09 10:18:00,37.2,36.2,29.90,NE,39,5.0,12.0,96,0.02,,---,0.36,88.00,VWS V14.01,2013-04-09 15:18:00,
2013-04-09 10:23:00,37.2,36.2,29.90,ENE,61,5.0,13.0,96,0.02,,---,0.36,63.00,VWS V14.01,2013-04-09 15:23:00,
2013-04-09 10:28:00,37.3,36.3,29.91,NNE,13,6.0,13.0,96,0.02,,---,0.36,56.00,VWS V14.01,2013-04-09 15:28:00,
2013-04-09 10:33:00,37.2,36.2,29.91,NE,51,5.0,13.0,96,0.02,,---,0.36,47.00,VWS V14.01,2013-04-09 15:33:00,
2013-04-09 10:38:00,37.2,36.2,29.91,NE,51,4.0,13.0,96,0.02,,---,0.36,49.00,VWS V14.01,2013-04-09 15:38:00,
2013-04-09 10:43:00,37.3,36.3,29.91,ENE,66,5.0,13.0,96,0.02,,---,0.36,40.00,VWS V14.01,2013-04-09 15:43:00,
2013-04-09 10:48:00,37.3,36.3,29.90,NE,46,9.0,13.0,96,0.02,,---,0.36,40.00,VWS V14.01,2013-04-09 15:48:00,
2013-04-09 10:53:00,37.3,36.0,29.90,ENE,57,11.0,14.0,95,0.02,,---,0.36,40.00,VWS V14.01,2013-04-09 15:53:00,
2013-04-09 10:58:00,37.2,35.9,29.91,NE,37,4.0,14.0,95,0.02,,---,0.36,35.00,VWS V14.01,2013-04-09 15:58:00,
2013-04-09 11:00:00,37.2,35.9,29.91,ENE,74,8.0,14.0,95,0.02,,---,0.36,33.00,VWS V14.01,2013-04-09 16:00:00,
2013-04-09 11:03:00,37.2,36.2,29.90,ENE,71,4.0,8.0,96,0.01,,---,0.36,25.00,VWS V14.01,2013-04-09 16:03:00,
2013-04-09 11:08:00,37.3,36.3,29.89,East,92,3.0,8.0,96,0.01,,---,0.36,19.00,VWS V14.01,2013-04-09 16:08:00,
2013-04-09 11:13:00,37.2,36.2,29.89,NE,51,6.0,8.0,96,0.01,,---,0.36,16.00,VWS V14.01,2013-04-09 16:13:00,
2013-04-09 11:18:00,37.2,36.2,29.89,NE,51,9.0,15.0,96,0.01,,---,0.36,12.00,VWS V14.01,2013-04-09 16:18:00,
2013-04-09 11:23:00,37.1,36.1,29.89,ENE,71,8.0,15.0,96,0.01,,---,0.36,9.00,VWS V14.01,2013-04-09 16:23:00,
2013-04-09 11:28:00,37.2,36.2,29.90,NE,40,4.0,15.0,96,0.02,,---,0.37,7.00,VWS V14.01,2013-04-09 16:28:00,
2013-04-09 11:33:00,37.2,36.2,29.91,NE,36,1.0,15.0,96,0.03,,---,0.38,5.00,VWS V14.01,2013-04-09 16:33:00,
2013-04-09 11:38:00,37.3,36.3,29.91,NNE,28,3.0,15.0,96,0.04,,---,0.39,7.00,VWS V14.01,2013-04-09 16:38:00,
2013-04-09 11:43:00,37.3,36.3,29.90,NE,34,5.0,15.0,96,0.07,,---,0.42,9.00,VWS V14.01,2013-04-09 16:43:00,
2013-04-09 11:48:00,37.3,36.3,29.91,NE,43,2.0,15.0,96,0.08,,---,0.43,5.00,VWS V14.01,2013-04-09 16:48:00,
2013-04-09 11:53:00,37.3,36.3,29.92,NNE,13,3.0,15.0,96,0.10,,---,0.45,5.00,VWS V14.01,2013-04-09 16:53:00,
2013-04-09 11:58:00,37.3,36.3,29.91,ENE,61,3.0,15.0,96,0.13,,---,0.48,5.00,VWS V14.01,2013-04-09 16:58:00,
2013-04-09 12:00:00,37.3,36.3,29.91,NE,49,5.0,15.0,96,0.13,,---,0.48,7.00,VWS V14.01,2013-04-09 17:00:00,
2013-04-09 12:03:00,37.3,36.3,29.92,NE,48,2.0,7.0,96,0.15,,---,0.51,5.00,VWS V14.01,2013-04-09 17:03:00,
2013-04-09 12:08:00,37.4,36.4,29.96,West,279,3.0,7.0,96,0.16,,---,0.52,0.00,VWS V14.01,2013-04-09 17:08:00,
2013-04-09 12:13:00,37.5,36.5,30.02,WSW,238,6.0,9.0,96,0.20,,---,0.56,0.00,VWS V14.01,2013-04-09 17:13:00,
2013-04-09 12:18:00,37.6,36.6,30.02,SW,215,1.0,9.0,96,0.26,,---,0.62,0.00,VWS V14.01,2013-04-09 17:18:00,
2013-04-09 12:23:00,37.7,36.7,29.97,ENE,63,3.0,9.0,96,0.32,,---,0.68,0.00,VWS V14.01,2013-04-09 17:23:00,
2013-04-09 12:28:00,37.6,36.6,29.93,ENE,68,8.0,9.0,96,0.36,,---,0.72,5.00,VWS V14.01,2013-04-09 17:28:00,
2013-04-09 12:33:00,37.5,36.5,29.92,ENE,69,5.0,11.0,96,0.38,,---,0.74,7.00,VWS V14.01,2013-04-09 17:33:00,
2013-04-09 12:38:00,37.6,36.6,29.94,North,355,5.0,11.0,96,0.40,,---,0.76,7.00,VWS V14.01,2013-04-09 17:38:00,
2013-04-09 12:43:00,37.6,36.6,29.93,NNE,28,3.0,11.0,96,0.42,,---,0.78,11.00,VWS V14.01,2013-04-09 17:43:00,
2013-04-09 12:48:00,37.6,36.6,29.94,North,355,3.0,11.0,96,0.43,,---,0.79,11.00,VWS V14.01,2013-04-09 17:48:00,
2013-04-09 12:53:00,37.7,36.7,29.93,NNE,21,3.0,11.0,96,0.43,,---,0.79,18.00,VWS V14.01,2013-04-09 17:53:00,
2013-04-09 12:58:00,37.7,36.7,29.93,NNE,15,2.0,11.0,96,0.44,,---,0.80,35.00,VWS V14.01,2013-04-09 17:58:00,
2013-04-09 13:00:00,37.7,36.7,29.93,North,355,2.0,11.0,96,0.44,,---,0.80,32.00,VWS V14.01,2013-04-09 18:00:00,
2013-04-09 13:03:00,37.8,36.8,29.93,NE,50,5.0,8.0,96,0.32,,---,0.80,49.00,VWS V14.01,2013-04-09 18:03:00,
2013-04-09 13:08:00,37.8,36.8,29.93,NNE,15,5.0,8.0,96,0.32,,---,0.80,56.00,VWS V14.01,2013-04-09 18:08:00,
2013-04-09 13:13:00,37.9,36.9,29.93,NE,54,4.0,8.0,96,0.33,,---,0.81,95.00,VWS V14.01,2013-04-09 18:13:00,
2013-04-09 13:18:00,38.0,37.0,29.93,ENE,73,4.0,8.0,96,0.33,,---,0.81,144.00,VWS V14.01,2013-04-09 18:18:00,
2013-04-09 13:23:00,38.2,37.2,29.91,NE,51,5.0,8.0,96,0.34,,---,0.82,130.00,VWS V14.01,2013-04-09 18:23:00,
2013-04-09 13:28:00,38.3,37.3,29.90,NE,37,5.0,14.0,96,0.34,,---,0.82,195.00,VWS V14.01,2013-04-09 18:28:00,
2013-04-09 13:33:00,38.5,37.5,29.89,ENE,71,12.0,14.0,96,0.34,,---,0.82,155.00,VWS V14.01,2013-04-09 18:33:00,
2013-04-09 13:38:00,38.6,37.6,29.90,NE,45,5.0,14.0,96,0.34,,---,0.82,65.00,VWS V14.01,2013-04-09 18:38:00,
2013-04-09 13:43:00,38.6,37.6,29.92,NNE,28,4.0,14.0,96,0.34,,---,0.82,40.00,VWS V14.01,2013-04-09 18:43:00,
2013-04-09 13:48:00,38.6,37.6,29.92,NE,54,5.0,14.0,96,0.34,,---,0.82,51.00,VWS V14.01,2013-04-09 18:48:00,
2013-04-09 13:53:00,38.5,37.5,29.92,NE,40,5.0,14.0,96,0.35,,---,0.83,54.00,VWS V14.01,2013-04-09 18:53:00,
2013-04-09 13:58:00,38.4,37.4,29.92,NE,48,3.0,14.0,96,0.36,,---,0.84,91.00,VWS V14.01,2013-04-09 18:58:00,
2013-04-09 14:00:00,38.4,37.4,29.92,NNE,26,5.0,14.0,96,0.36,,---,0.84,109.00,VWS V14.01,2013-04-09 19:00:00,
2013-04-09 14:03:00,38.5,37.5,29.92,NE,51,5.0,12.0,96,0.04,,---,0.84,153.00,VWS V14.01,2013-04-09 19:03:00,
2013-04-09 14:08:00,38.6,37.6,29.93,ENE,71,14.0,14.0,96,0.05,,---,0.85,123.00,VWS V14.01,2013-04-09 19:08:00,
2013-04-09 14:13:00,38.7,37.7,29.94,NE,43,2.0,14.0,96,0.05,,---,0.85,113.00,VWS V14.01,2013-04-09 19:13:00,
2013-04-09 14:18:00,38.9,37.9,29.94,NE,36,8.0,14.0,96,0.05,,---,0.85,93.00,VWS V14.01,2013-04-09 19:18:00,
2013-04-09 14:23:00,39.0,38.0,29.93,ENE,57,8.0,14.0,96,0.06,,---,0.86,153.00,VWS V14.01,2013-04-09 19:23:00,
2013-04-09 14:28:00,39.0,38.0,29.93,NE,49,4.0,14.0,96,0.06,,---,0.86,113.00,VWS V14.01,2013-04-09 19:28:00,
2013-04-09 14:33:00,39.1,38.1,29.94,ENE,71,5.0,14.0,96,0.06,,---,0.86,69.00,VWS V14.01,2013-04-09 19:33:00,
2013-04-09 14:38:00,39.2,37.9,29.95,NNE,22,5.0,14.0,95,0.06,,---,0.86,47.00,VWS V14.01,2013-04-09 19:38:00,
2013-04-09 14:43:00,39.1,37.8,29.94,ENE,67,5.0,14.0,95,0.06,,---,0.86,53.00,VWS V14.01,2013-04-09 19:43:00,
2013-04-09 14:48:00,39.1,37.8,29.93,NE,41,8.0,14.0,95,0.06,,---,0.86,88.00,VWS V14.01,2013-04-09 19:48:00,
2013-04-09 14:53:00,39.2,37.9,29.93,NE,52,4.0,14.0,95,0.06,,---,0.86,69.00,VWS V14.01,2013-04-09 19:53:00,
2013-04-09 14:58:00,39.3,38.0,29.94,NNE,19,3.0,14.0,95,0.06,,---,0.86,53.00,VWS V14.01,2013-04-09 19:58:00,
2013-04-09 15:00:00,39.3,38.0,29.94,ENE,61,7.0,14.0,95,0.06,,---,0.86,47.00,VWS V14.01,2013-04-09 20:00:00,
2013-04-09 15:03:00,39.3,38.0,29.95,NNE,33,4.0,10.0,95,0.02,,---,0.86,42.00,VWS V14.01,2013-04-09 20:03:00,
2013-04-09 15:09:00,39.4,38.1,29.94,NNE,17,9.0,10.0,95,0.02,,---,0.86,35.00,VWS V14.01,2013-04-09 20:09:00,
2013-04-09 15:14:00,39.5,38.2,29.95,ENE,76,3.0,10.0,95,0.02,,---,0.86,53.00,VWS V14.01,2013-04-09 20:14:00,
2013-04-09 15:19:00,39.5,38.2,29.95,ENE,58,9.0,10.0,95,0.03,,---,0.87,49.00,VWS V14.01,2013-04-09 20:19:00,
2013-04-09 15:24:00,39.6,38.3,29.96,NE,35,7.0,10.0,95,0.03,,---,0.87,46.00,VWS V14.01,2013-04-09 20:24:00,
2013-04-09 15:29:00,39.6,38.3,29.95,ENE,71,5.0,10.0,95,0.03,,---,0.87,46.00,VWS V14.01,2013-04-09 20:29:00,
2013-04-09 15:34:00,39.7,38.4,29.95,NE,35,6.0,10.0,95,0.04,,---,0.88,58.00,VWS V14.01,2013-04-09 20:34:00,
2013-04-09 15:39:00,39.7,38.4,29.95,NNE,33,5.0,10.0,95,0.04,,---,0.88,60.00,VWS V14.01,2013-04-09 20:39:00,
2013-04-09 15:44:00,39.6,38.3,29.95,ENE,57,5.0,11.0,95,0.04,,---,0.88,69.00,VWS V14.01,2013-04-09 20:44:00,
2013-04-09 15:49:00,39.5,38.2,29.95,NE,46,4.0,13.0,95,0.04,,---,0.88,74.00,VWS V14.01,2013-04-09 20:49:00,
2013-04-09 15:54:00,39.6,38.3,29.96,NE,50,6.0,13.0,95,0.04,,---,0.88,63.00,VWS V14.01,2013-04-09 20:54:00,
2013-04-09 15:59:00,39.5,38.2,29.96,NE,35,5.0,6.0,95,0.02,,---,0.88,51.00,VWS V14.01,2013-04-09 20:59:00,
2013-04-09 16:00:00,39.5,38.2,29.96,NNE,24,6.0,13.0,95,0.04,,---,0.88,53.00,VWS V14.01,2013-04-09 21:00:00,
2013-04-09 16:04:00,39.4,38.1,29.96,East,84,6.0,9.0,95,0.02,,---,0.88,53.00,VWS V14.01,2013-04-09 21:04:00,
2013-04-09 16:09:00,39.3,38.0,29.96,NE,43,3.0,9.0,95,0.02,,---,0.88,46.00,VWS V14.01,2013-04-09 21:09:00,
2013-04-09 16:14:00,39.2,37.9,29.96,NNE,16,6.0,11.0,95,0.02,,---,0.88,49.00,VWS V14.01,2013-04-09 21:14:00,
2013-04-09 16:19:00,39.2,37.9,29.96,East,82,8.0,11.0,95,0.02,,---,0.88,44.00,VWS V14.01,2013-04-09 21:19:00,
2013-04-09 16:24:00,39.2,37.9,29.97,NNE,25,9.0,11.0,95,0.02,,---,0.88,40.00,VWS V14.01,2013-04-09 21:24:00,
2013-04-09 16:29:00,39.2,37.9,29.97,NE,51,5.0,11.0,95,0.02,,---,0.88,47.00,VWS V14.01,2013-04-09 21:29:00,
2013-04-09 16:34:00,39.1,37.8,29.97,ENE,57,7.0,12.0,95,0.02,,---,0.88,35.00,VWS V14.01,2013-04-09 21:34:00,
2013-04-09 16:39:00,39.1,37.8,29.97,NNE,22,6.0,14.0,95,0.02,,---,0.88,35.00,VWS V14.01,2013-04-09 21:39:00,
2013-04-09 16:44:00,39.0,37.7,29.97,NE,44,7.0,14.0,95,0.02,,---,0.88,33.00,VWS V14.01,2013-04-09 21:44:00,
2013-04-09 16:50:00,39.0,37.7,29.97,ENE,69,8.0,14.0,95,0.02,,---,0.88,33.00,VWS V14.01,2013-04-09 21:50:00,
2013-04-09 16:54:00,38.9,37.6,29.97,NNE,33,2.0,14.0,95,0.02,,---,0.88,35.00,VWS V14.01,2013-04-09 21:54:00,
2013-04-09 16:59:00,38.9,37.6,29.97,ENE,57,10.0,10.0,95,0.00,,---,0.88,37.00,VWS V14.01,2013-04-09 21:59:00,
2013-04-09 17:00:00,39.0,37.7,29.97,ENE,61,5.0,14.0,95,0.02,,---,0.88,37.00,VWS V14.01,2013-04-09 22:00:00,
2013-04-09 17:04:00,38.9,37.6,29.97,NE,45,4.0,10.0,95,0.00,,---,0.88,53.00,VWS V14.01,2013-04-09 22:04:00,
2013-04-09 17:09:00,39.0,37.7,29.97,ENE,69,5.0,10.0,95,0.01,,---,0.89,37.00,VWS V14.01,2013-04-09 22:09:00,
2013-04-09 17:15:00,39.0,37.7,29.98,ENE,68,7.0,10.0,95,0.01,,---,0.89,30.00,VWS V14.01,2013-04-09 22:15:00,
2013-04-09 17:20:00,39.1,37.8,29.98,ENE,65,5.0,10.0,95,0.01,,---,0.89,33.00,VWS V14.01,2013-04-09 22:20:00,
2013-04-09 17:25:00,39.1,37.8,29.98,NE,53,3.0,10.0,95,0.01,,---,0.89,33.00,VWS V14.01,2013-04-09 22:25:00,
2013-04-09 17:30:00,39.1,37.8,29.99,NE,46,4.0,10.0,95,0.01,,---,0.89,23.00,VWS V14.01,2013-04-09 22:30:00,
2013-04-09 17:35:00,39.1,37.8,29.99,ENE,71,5.0,10.0,95,0.01,,---,0.89,30.00,VWS V14.01,2013-04-09 22:35:00,
2013-04-09 17:40:00,39.1,37.8,29.98,NNE,31,6.0,10.0,95,0.01,,---,0.89,37.00,VWS V14.01,2013-04-09 22:40:00,
2013-04-09 17:45:00,39.1,37.8,29.99,ENE,70,5.0,11.0,95,0.01,,---,0.89,26.00,VWS V14.01,2013-04-09 22:45:00,
2013-04-09 17:50:00,39.2,37.9,29.99,NE,50,8.0,11.0,95,0.01,,---,0.89,18.00,VWS V14.01,2013-04-09 22:50:00,
2013-04-09 17:55:00,39.2,37.9,29.99,NE,53,5.0,11.0,95,0.01,,---,0.89,16.00,VWS V14.01,2013-04-09 22:55:00,
2013-04-09 18:00:00,39.2,37.9,30.00,ENE,72,5.0,8.0,95,0.01,,---,0.89,14.00,VWS V14.01,2013-04-09 23:00:00,
2013-04-09 18:05:00,39.3,38.0,30.00,NE,52,3.0,8.0,95,0.01,,---,0.89,12.00,VWS V14.01,2013-04-09 23:05:00,
2013-04-09 18:10:00,39.3,38.0,30.00,NE,55,8.0,12.0,95,0.01,,---,0.89,28.00,VWS V14.01,2013-04-09 23:10:00,
2013-04-09 18:15:00,39.3,38.0,30.00,NNE,31,6.0,12.0,95,0.01,,---,0.89,26.00,VWS V14.01,2013-04-09 23:15:00,
2013-04-09 18:20:00,39.3,37.7,30.00,NE,40,5.0,12.0,94,0.01,,---,0.89,21.00,VWS V14.01,2013-04-09 23:20:00,
2013-04-09 18:25:00,39.3,37.7,30.00,NE,53,9.0,14.0,94,0.01,,---,0.89,23.00,VWS V14.01,2013-04-09 23:25:00,
2013-04-09 18:29:00,39.3,37.7,30.00,NNE,27,6.0,14.0,94,0.01,,---,0.89,25.00,VWS V14.01,2013-04-09 23:29:00,
2013-04-09 18:34:00,39.4,37.8,30.00,NE,52,9.0,14.0,94,0.01,,---,0.89,25.00,VWS V14.01,2013-04-09 23:34:00,
2013-04-09 18:39:00,39.4,37.8,30.00,NE,49,6.0,14.0,94,0.01,,---,0.89,18.00,VWS V14.01,2013-04-09 23:39:00,
2013-04-09 18:44:00,39.4,37.8,30.00,NNE,32,4.0,14.0,94,0.01,,---,0.89,11.00,VWS V14.01,2013-04-09 23:44:00,
2013-04-09 18:49:00,39.4,37.8,30.01,NNE,33,4.0,14.0,94,0.01,,---,0.89,9.00,VWS V14.01,2013-04-09 23:49:00,
2013-04-09 18:54:00,39.5,37.9,30.01,NE,37,5.0,14.0,94,0.01,,---,0.89,9.00,VWS V14.01,2013-04-09 23:54:00,
2013-04-09 18:59:00,39.4,37.8,30.01,NE,51,3.0,7.0,94,0.00,,---,0.89,7.00,VWS V14.01,2013-04-09 23:59:00,
2013-04-09 19:00:00,39.4,37.8,30.01,NNE,20,7.0,14.0,94,0.01,,---,0.89,7.00,VWS V14.01,2013-04-10 00:00:00,
2013-04-09 19:04:00,39.4,37.8,30.01,NE,36,6.0,11.0,94,0.00,,---,0.89,5.00,VWS V14.01,2013-04-10 00:04:00,
2013-04-09 19:09:00,39.4,37.5,30.01,NE,53,13.0,13.0,93,0.00,,---,0.89,0.00,VWS V14.01,2013-04-10 00:09:00,
2013-04-09 19:14:00,39.4,37.5,30.01,NE,55,5.0,13.0,93,0.00,,---,0.89,0.00,VWS V14.01,2013-04-10 00:14:00,
2013-04-09 19:19:00,39.4,37.5,30.01,ENE,65,9.0,14.0,93,0.00,,---,0.89,0.00,VWS V14.01,2013-04-10 00:19:00,
2013-04-09 19:24:00,39.4,37.3,30.01,NE,49,5.0,14.0,92,0.00,,---,0.89,0.00,VWS V14.01,2013-04-10 00:24:00,
2013-04-09 19:29:00,39.4,37.3,30.01,NE,36,6.0,14.0,92,0.00,,---,0.89,0.00,VWS V14.01,2013-04-10 00:29:00,
2013-04-09 19:34:00,39.4,37.3,30.01,NE,45,1.0,14.0,92,0.00,,---,0.89,0.00,VWS V14.01,2013-04-10 00:34:00,
2013-04-09 19:39:00,39.4,37.3,30.01,NE,47,9.0,14.0,92,0.00,,---,0.89,0.00,VWS V14.01,2013-04-10 00:39:00,
2013-04-09 19:44:00,39.3,37.2,30.02,ENE,59,11.0,15.0,92,0.00,,---,0.89,0.00,VWS V14.01,2013-04-10 00:44:00,
2013-04-09 19:49:00,39.3,36.9,30.02,NE,46,10.0,15.0,91,0.00,,---,0.89,0.00,VWS V14.01,2013-04-10 00:49:00,
2013-04-09 19:54:00,39.2,37.1,30.02,ENE,74,5.0,15.0,92,0.00,,---,0.89,0.00,VWS V14.01,2013-04-10 00:54:00,
2013-04-09 19:59:00,39.1,37.0,30.02,ENE,59,15.0,15.0,92,0.00,,---,0.89,0.00,VWS V14.01,2013-04-10 00:59:00,
2013-04-09 20:00:00,39.1,37.0,30.02,East,86,9.0,15.0,92,0.00,,---,0.89,0.00,VWS V14.01,2013-04-10 01:00:00,
2013-04-09 20:04:00,39.1,37.0,30.03,ENE,63,8.0,18.0,92,0.00,,---,0.89,0.00,VWS V14.01,2013-04-10 01:04:00,
2013-04-09 20:09:00,39.0,36.9,30.02,NE,35,8.0,18.0,92,0.00,,---,0.89,0.00,VWS V14.01,2013-04-10 01:09:00,
2013-04-09 20:14:00,39.0,36.9,30.02,ENE,65,8.0,18.0,92,0.00,,---,0.89,0.00,VWS V14.01,2013-04-10 01:14:00,
2013-04-09 20:19:00,38.9,36.8,30.02,NE,34,4.0,18.0,92,0.00,,---,0.89,0.00,VWS V14.01,2013-04-10 01:19:00,
2013-04-09 20:24:00,38.9,36.8,30.01,NE,51,8.0,18.0,92,0.00,,---,0.89,0.00,VWS V14.01,2013-04-10 01:24:00,
2013-04-09 20:29:00,38.9,36.8,30.01,East,101,6.0,18.0,92,0.00,,---,0.89,0.00,VWS V14.01,2013-04-10 01:29:00,
2013-04-09 20:34:00,38.8,36.7,30.02,ENE,64,5.0,18.0,92,0.01,,---,0.90,0.00,VWS V14.01,2013-04-10 01:34:00,
2013-04-09 20:39:00,38.7,36.6,30.02,NE,51,6.0,18.0,92,0.01,,---,0.90,0.00,VWS V14.01,2013-04-10 01:39:00,
2013-04-09 20:44:00,38.7,36.6,30.02,NNE,28,8.0,18.0,92,0.01,,---,0.90,0.00,VWS V14.01,2013-04-10 01:44:00,
2013-04-09 20:49:00,38.7,36.6,30.02,North,355,7.0,18.0,92,0.01,,---,0.90,0.00,VWS V14.01,2013-04-10 01:49:00,
2013-04-09 20:54:00,38.6,36.2,30.02,NE,38,7.0,18.0,91,0.01,,---,0.90,0.00,VWS V14.01,2013-04-10 01:54:00,
2013-04-09 20:59:00,38.6,36.2,30.02,ENE,71,10.0,11.0,91,0.01,,---,0.90,0.00,VWS V14.01,2013-04-10 01:59:00,
2013-04-09 21:00:00,38.6,36.2,30.02,NE,44,9.0,18.0,91,0.01,,---,0.90,0.00,VWS V14.01,2013-04-10 02:00:00,
2013-04-09 21:04:00,38.6,36.2,30.02,NNE,22,5.0,14.0,91,0.01,,---,0.90,0.00,VWS V14.01,2013-04-10 02:04:00,
2013-04-09 21:09:00,38.6,36.2,30.02,NE,38,7.0,14.0,91,0.01,,---,0.90,0.00,VWS V14.01,2013-04-10 02:09:00,
2013-04-09 21:14:00,38.5,36.1,30.02,NE,45,4.0,14.0,91,0.01,,---,0.90,0.00,VWS V14.01,2013-04-10 02:14:00,
2013-04-09 21:19:00,38.4,36.0,30.02,NE,52,7.0,14.0,91,0.01,,---,0.90,0.00,VWS V14.01,2013-04-10 02:19:00,
2013-04-09 21:24:00,38.4,36.0,30.02,NE,47,8.0,14.0,91,0.01,,---,0.90,0.00,VWS V14.01,2013-04-10 02:24:00,
2013-04-09 21:29:00,38.3,36.2,30.01,East,84,7.0,14.0,92,0.01,,---,0.90,0.00,VWS V14.01,2013-04-10 02:29:00,
2013-04-09 21:34:00,38.2,36.1,30.01,ENE,59,7.0,14.0,92,0.01,,---,0.90,0.00,VWS V14.01,2013-04-10 02:34:00,
2013-04-09 21:39:00,38.1,36.0,30.01,ENE,65,11.0,14.0,92,0.01,,---,0.90,0.00,VWS V14.01,2013-04-10 02:39:00,
2013-04-09 21:44:00,38.0,35.9,30.01,NE,43,7.0,14.0,92,0.01,,---,0.90,0.00,VWS V14.01,2013-04-10 02:44:00,
2013-04-09 21:49:00,38.0,35.9,30.02,NE,54,6.0,14.0,92,0.01,,---,0.90,0.00,VWS V14.01,2013-04-10 02:49:00,
2013-04-09 21:54:00,37.9,35.8,30.02,NE,46,3.0,14.0,92,0.01,,---,0.90,0.00,VWS V14.01,2013-04-10 02:54:00,
2013-04-09 21:59:00,37.9,35.8,30.02,NE,48,6.0,6.0,92,0.00,,---,0.90,0.00,VWS V14.01,2013-04-10 02:59:00,
2013-04-09 22:00:00,37.9,35.8,30.03,ENE,67,5.0,14.0,92,0.01,,---,0.90,0.00,VWS V14.01,2013-04-10 03:00:00,
2013-04-09 22:04:00,37.7,35.6,30.02,NE,53,7.0,13.0,92,0.01,,---,0.91,0.00,VWS V14.01,2013-04-10 03:04:00,
2013-04-09 22:09:00,37.6,35.5,30.01,ENE,64,8.0,14.0,92,0.01,,---,0.91,0.00,VWS V14.01,2013-04-10 03:09:00,
2013-04-09 22:14:00,37.5,35.4,30.00,ENE,78,12.0,14.0,92,0.01,,---,0.91,0.00,VWS V14.01,2013-04-10 03:14:00,
2013-04-09 22:19:00,37.4,35.3,30.00,ENE,65,12.0,15.0,92,0.01,,---,0.91,0.00,VWS V14.01,2013-04-10 03:19:00,
2013-04-09 22:24:00,37.3,35.2,30.00,NE,46,7.0,16.0,92,0.01,,---,0.91,0.00,VWS V14.01,2013-04-10 03:24:00,
2013-04-09 22:29:00,37.2,35.1,30.01,NE,51,4.0,16.0,92,0.01,,---,0.91,0.00,VWS V14.01,2013-04-10 03:29:00,
2013-04-09 22:34:00,37.2,34.8,30.01,ENE,63,3.0,16.0,91,0.01,,---,0.91,0.00,VWS V14.01,2013-04-10 03:34:00,
2013-04-09 22:39:00,37.2,35.1,30.03,NE,51,4.0,16.0,92,0.01,,---,0.91,0.00,VWS V14.01,2013-04-10 03:39:00,
2013-04-09 22:44:00,37.1,35.0,30.04,NE,37,3.0,16.0,92,0.02,,---,0.92,0.00,VWS V14.01,2013-04-10 03:44:00,
2013-04-09 22:49:00,37.1,35.0,30.04,NE,43,3.0,16.0,92,0.03,,---,0.93,0.00,VWS V14.01,2013-04-10 03:49:00,
2013-04-09 22:54:00,36.8,34.7,30.02,NE,53,7.0,16.0,92,0.04,,---,0.94,0.00,VWS V14.01,2013-04-10 03:54:00,
2013-04-09 22:59:00,36.4,34.0,30.01,NE,46,8.0,9.0,91,0.05,,---,0.95,0.00,VWS V14.01,2013-04-10 03:59:00,
2013-04-09 23:00:00,36.4,34.0,30.01,NE,40,6.0,9.0,91,0.05,,---,0.95,0.00,VWS V14.01,2013-04-10 04:00:00,
2013-04-09 23:05:00,36.1,33.7,30.02,NNE,19,6.0,12.0,91,0.05,,---,0.95,0.00,VWS V14.01,2013-04-10 04:05:00,
2013-04-09 23:10:00,35.8,33.4,29.99,NE,46,9.0,16.0,91,0.07,,---,0.97,0.00,VWS V14.01,2013-04-10 04:10:00,
2013-04-09 23:15:00,35.6,33.2,29.97,East,88,9.0,16.0,91,0.09,,---,0.99,0.00,VWS V14.01,2013-04-10 04:15:00,
2013-04-09 23:20:00,35.4,33.0,29.98,ENE,72,9.0,16.0,91,0.09,,---,0.99,0.00,VWS V14.01,2013-04-10 04:20:00,
2013-04-09 23:25:00,35.3,32.9,29.98,ENE,63,8.0,16.0,91,0.10,,---,1.00,0.00,VWS V14.01,2013-04-10 04:25:00,
2013-04-09 23:30:00,35.3,32.9,30.02,WNW,298,4.0,16.0,91,0.11,,---,1.01,0.00,VWS V14.01,2013-04-10 04:30:00,
2013-04-09 23:35:00,35.3,32.9,30.07,NW,311,2.0,16.0,91,0.12,,---,1.02,0.00,VWS V14.01,2013-04-10 04:35:00,
2013-04-09 23:40:00,35.3,32.9,30.08,NE,42,7.0,16.0,91,0.13,,---,1.03,0.00,VWS V14.01,2013-04-10 04:40:00,
2013-04-09 23:45:00,35.0,32.6,30.02,ENE,76,5.0,16.0,91,0.21,,---,1.11,0.00,VWS V14.01,2013-04-10 04:45:00,
2013-04-09 23:50:00,34.6,32.2,30.03,NE,54,6.0,16.0,91,0.24,,---,1.14,0.00,VWS V14.01,2013-04-10 04:50:00,
2013-04-09 23:55:00,34.4,32.3,30.03,ENE,76,10.0,16.0,92,0.24,,---,1.14,0.00,VWS V14.01,2013-04-10 04:55:00,